Regional Weather Roundup
Issued by NWS Jackson, KY

Home | Current Version | Previous Version | Text Only | Print | Product List | Glossary Off
Versions: 1 2 3 4 5 6 7 8 9 10 11 12 13 14 15 16 17 18 19 20 21 22 23 24 25 26 27 28 29 30 31 32 33 34 35 36 37 38 39 40 41 42 43 44 45 46 47 48 49 50

000
ASUS43 KJKL 240610
RWRJKL

EAST KENTUCKY HOURLY WEATHER ROUNDUP
NATIONAL WEATHER SERVICE JACKSON KY
200 AM EDT TUE MAY 24 2016

NOTE: "FAIR" INDICATES FEW OR NO CLOUDS BELOW 12,000 FEET WITH
NO SIGNIFICANT WEATHER AND/OR OBSTRUCTIONS TO VISIBILITY.

* THESE REPORTS ARE NOT UNDER NWS QUALITY CONTROL AND MAY NOT
  REPORT WEATHER SUCH AS PRECIPITATION AND FOG.

KYZ079-080-083-085-087-088-110-112-115-119-120-240700
...EASTERN KENTUCKY...

CITY           SKY/WX    TMP DP  RH WIND       PRES   REMARKS
JACKSON        CLEAR     59  48  67 CALM      30.06F
6HR MIN TEMP:  58; 6HR MAX TEMP:  69;

LONDON         CLEAR     53  50  89 CALM      30.06S
6HR MIN TEMP:  53; 6HR MAX TEMP:  72;

SOMERSET*      CLEAR     50  50 100 CALM      30.06F
MONTICELLO*    CLEAR     51  49  92 W10       30.06F
6HR MIN TEMP:  50; 6HR MAX TEMP:  72;

WILLIAMSBURG*  CLEAR     54  54 100 CALM      30.06F
MIDDLESBORO*   CLEAR     51  51  98 CALM      30.09S
6HR MIN TEMP:  51; 6HR MAX TEMP:  69;

HARLAN APT*      N/A     52  48  87 CALM      30.09S
HAZARD APT*    CLEAR     52  52 100 CALM      30.07S
BLACK MTN*       N/A     54  46  76 E3          N/A
PIKE CO APT*     N/A     56  53  90 S6        30.07S
BIG SANDY APT* CLEAR     55  53  92 CALM      30.06F
6HR MIN TEMP:  55; 6HR MAX TEMP:  69;

MOREHEAD APT*  CLEAR     57  52  82 CALM      30.07S
ASHLAND*       CLEAR     54  52  94 CALM      30.02F
$$

KYZ035-036-041-042-044-050-067-078-099-240700
...CENTRAL KENTUCKY...

CITY           SKY/WX    TMP DP  RH WIND       PRES   REMARKS
MT STERLING*   CLEAR     52  52 100 CALM      30.07S FOG
FLEMING/MASON* CLEAR     56  52  86 S3        30.06S
DANVILLE*      CLEAR     52  50  93 CALM      30.06F
RICHMOND*      CLEAR     54  50  87 SE3       30.05S
LEXINGTON      CLEAR     57  51  80 SE3       30.05S
6HR MIN TEMP:  55; 6HR MAX TEMP:  72;

FRANKFORT      CLEAR     54  50  86 CALM      30.03F
6HR MIN TEMP:  54; 6HR MAX TEMP:  72;

LOUISVILLE     CLEAR     63  49  60 SE5       30.02F
6HR MIN TEMP:  63; 6HR MAX TEMP:  76;

LEBANON*         N/A     55  52  88 CALM      30.04F
GLASGOW*       CLEAR     50  50  99 CALM      30.02S
BOWLING GREEN  CLEAR     57  51  80 CALM      30.02S
6HR MIN TEMP:  56; 6HR MAX TEMP:  76;

$$

KYZ091>093-OHZ055-061-077-WVZ005-015-034-035-042-240700
...SOUTHERN OHIO/WEST VIRGINIA...

CITY           SKY/WX    TMP DP  RH WIND       PRES   REMARKS
COVINGTON      CLEAR     59  50  72 CALM      30.03F
COLUMBUS       CLEAR     55  51  86 CALM      30.02F
DAYTON         CLEAR     63  46  54 SW8       30.04F
WILMINGTON     CLEAR     55  51  86 CALM      30.04F
HUNTINGTON       N/A     54  52  93 CALM      30.04S
CHARLESTON       N/A     54  52  93 CALM      30.05S
PINEVILLE*     FOG       51  48  90 MISG      30.14S VSB 1/2
BECKLEY          N/A     50  48  93 SE3       30.09F
BLUEFIELD        N/A     50  46  86 W7        30.11S
LOGAN CO APT*    N/A     55  52  88 CALM      30.07S
$$

VAZ002-007-008-TNZ017-027-036-066-071-240700
...SOUTHWEST VIRGINIA/EAST TENNESSEE...

CITY           SKY/WX    TMP DP  RH WIND       PRES   REMARKS
WISE*            N/A     52  43  71 CALM      30.11F
JONESVILLE*      N/A     50  48  93 CALM      30.10S
ABINGDON*        N/A     52  49  92 CALM      30.10R
BRISTOL        CLEAR     50  48  93 CALM      30.08F
SEVIERVILLE*   PTCLDY    54  50  87 CALM      30.05S
KNOXVILLE      CLEAR     60  52  74 CALM      30.04S
OAK RIDGE      CLEAR     56  51  84 CALM      30.06F
CROSSVILLE     CLEAR     53  45  74 CALM      30.08S
NASHVILLE      CLEAR     60  52  74 CALM      30.02S
$$

...KEY TO REMARKS...
VSB - VISIBILITY IN MILES
WCI - WIND CHILL INDEX
HX  - HEAT INDEX

$$



USA.gov is the U.S. government's official web portal to all federal, state and local government web resources and services.